Tracking 17154 objects as of 3-August-2015
HD Live streaming from Space Station

ESSA 1 (OT-3)

Track ESSA 1 (OT-3) now!
10-day predictions
ESSA 1 (OT-3) is classified as:


NORAD ID: 1982
Int'l Code: 1966-008A
Perigee: 684.4 km
Apogee: 802.7 km
Inclination: 97.9 °
Period: 99.5 minutes
Semi major axis: 7114 km
RCS: 0.7257 m2 (medium)
Launch date: February 3, 1966
Source: United States (US)
Your satellite tracking list
Your tracking list is empty





NASA's NSSDC Master Catalog

Two Line Element Set (TLE):
1 01982U 66008A   15214.67109722  .00000090  00000-0  34979-4 0  9992
2 01982 097.9104 105.1959 0083154 103.9492 257.0967 14.46702233604302

Source of the keplerian elements: AFSPC

N2YO: 301